Location: Newark
(52.3500°N, 175.9667°E)
Time: 22:05:37
(UTC+00:00)

Transit 4A - Pass Details

Date: 20 April 2021
Orbit: 871 x 974 km, 66.8° (Epoch: 16 May)

Event Time Altitude Azimuth Distance (km) Brightness Sun altitude
Rises 16:34:36 0° 303° (WNW) 3,572 10.7 -5.3°
Reaches altitude 10° 16:37:50 10° 320° (NW) 2,609 10.1 -4.9°
Maximum altitude 16:42:19 21° 8° (N) 1,916 10.0 -4.2°
Drops below altitude 10° 16:46:43 10° 56° (NE) 2,559 12.1 -3.6°
Sets 16:49:51 0° 73° (ENE) 3,484 13.6 -3.2°
